Anchorage Merrill, AK

1:28 AM AKDT on March 30, 2017 (GMT -0800)
Merrill

Weather History for PAMR - August, 2014

Change the Weather History Date:

Saturday, August 30, 2014

  Actual Average Record
Temperature  
Mean Temperature 52 °F -  
Max Temperature 62 °F 60 °F 73 °F (2016)
Min Temperature 44 °F 46 °F 44 °F (2014)
Degree Days  
Heating Degree Days 12    
Growing Degree Days 2 (Base 50)    
Moisture  
Dew Point 37 °F    
Average Humidity 56    
Maximum Humidity 71    
Minimum Humidity 38    
Precipitation  
Precipitation 0.00 in - - ()
Sea Level Pressure  
Sea Level Pressure 29.59 in    
Wind  
Wind Speed 5 mph (North)    
Max Wind Speed 8 mph    
Max Gust Speed -    
Visibility 10 miles    
Events      
Averages and records for this station are not official NWS values.
T = Trace of Precipitation, MM = Missing Value Source: NWS Daily Summary

Daily Weather History Graph

Daily Weather History Graph

Search for Another Location

Airport or City:

Trip Planner

Search our weather history database for the weather conditions in past years. The results will help you decide how hot, cold, wet, or windy it might be!

Date:

Astronomy

Aug. 30, 2014 Rise Set
Actual Time 6:46 AM AKDT 9:11 PM AKDT
Civil Twilight 5:58 AM AKDT 9:58 PM AKDT
Nautical Twilight 4:55 AM AKDT 11:01 PM AKDT
Astronomical Twilight 3:22 AM AKDT 12:30 AM AKDT
Moon 1:16 PM AKDT 10:16 PM AKDT
Length of Visible Light 16h 00m
Length of Day
14h 24m
Waxing Crescent, 24% of the Moon is Illuminated
Aug 30
Waxing Crescent
Sep 2
First Quarter
Sep 8
Full
Sep 15
Last Quarter
Sep 23
New

Hourly Weather History & Observations

Time (AKDT) Temp. Windchill Dew Point Humidity Pressure Visibility Wind Dir Wind Speed Gust Speed Precip Events Conditions
12:53 AM 52.0 °F - 33.1 °F 49% 29.60 in 10.0 mi NNE 5.8 mph - N/A   Mostly Cloudy
1:53 AM 52.0 °F - 30.0 °F 43% 29.61 in 10.0 mi NE 8.1 mph - N/A   Overcast
2:53 AM 48.9 °F - 30.9 °F 50% 29.61 in 10.0 mi NNW 8.1 mph - N/A   Mostly Cloudy
3:53 AM 46.9 °F - 32.0 °F 56% 29.62 in 10.0 mi NNW 5.8 mph - N/A   Mostly Cloudy
4:53 AM 45.0 °F 43.5 °F 33.1 °F 63% 29.62 in 10.0 mi ENE 3.5 mph - N/A   Partly Cloudy
5:53 AM 45.0 °F 42.6 °F 33.1 °F 63% 29.62 in 10.0 mi North 4.6 mph - N/A   Scattered Clouds
6:53 AM 44.1 °F 42.5 °F 34.0 °F 68% 29.61 in 10.0 mi NE 3.5 mph - N/A   Clear
6:54 AM 44.1 °F 42.5 °F 34.0 °F 68% 29.61 in 10.0 mi ENE 3.5 mph - N/A   Scattered Clouds
7:53 AM 44.1 °F - 35.1 °F 71% 29.61 in 10.0 mi Calm Calm - N/A   Scattered Clouds
8:53 AM 46.9 °F - 36.0 °F 66% 29.62 in 10.0 mi Variable 3.5 mph - N/A   Partly Cloudy
9:53 AM 48.0 °F - 37.0 °F 66% 29.62 in 10.0 mi NNW 6.9 mph - N/A   Clear
10:53 AM 48.9 °F - 39.0 °F 69% 29.62 in 10.0 mi North 4.6 mph - N/A   Partly Cloudy
11:53 AM 53.1 °F - 39.0 °F 59% 29.61 in 10.0 mi NNW 5.8 mph - N/A   Clear
12:53 PM 55.0 °F - 37.9 °F 53% 29.60 in 10.0 mi Variable 4.6 mph - N/A   Clear
1:53 PM 57.0 °F - 37.9 °F 49% 29.59 in 10.0 mi NNW 8.1 mph - N/A   Clear
2:53 PM 59.0 °F - 39.9 °F 49% 29.57 in 10.0 mi North 6.9 mph - N/A   Clear
3:53 PM 60.1 °F - 37.9 °F 44% 29.57 in 10.0 mi Variable 5.8 mph - N/A   Clear
4:53 PM 61.0 °F - 35.1 °F 38% 29.55 in 10.0 mi NNW 5.8 mph - N/A   Clear
5:53 PM 61.0 °F - 37.0 °F 41% 29.55 in 10.0 mi WNW 4.6 mph - N/A   Clear
6:53 PM 61.0 °F - 37.9 °F 42% 29.54 in 10.0 mi WNW 4.6 mph - N/A   Clear
7:53 PM 59.0 °F - 39.0 °F 48% 29.54 in 10.0 mi WNW 4.6 mph - N/A   Partly Cloudy
8:53 PM 57.9 °F - 39.9 °F 51% 29.55 in 10.0 mi NW 3.5 mph - N/A   Scattered Clouds
9:53 PM 57.0 °F - 42.1 °F 57% 29.55 in 10.0 mi Calm Calm - N/A   Scattered Clouds
10:53 PM 52.0 °F - 41.0 °F 66% 29.56 in 10.0 mi Calm Calm - N/A   Clear
11:53 PM 50.0 °F - 41.0 °F 71% 29.57 in 10.0 mi Calm Calm - N/A   Partly Cloudy